Terug naar catalogus

STARLINK-37816

ActiefCommunicatieSSO
NORAD 69478·PAYLOAD·🇺🇸 United States

Gelanceerd Jun 11, 2026 vanaf Vandenberg Space Force Base

Loading…

Volgende Passages (komende 24 uur)

TLE

VersSource: CelesTrak SupGP

Epoch: Sep 15, 2026, 03:56 UTC

1 69478C 26131A   26258.16437500 -.00053279  00000+0 -16541-2 0  2580
2 69478  97.2831 279.1893 0001127  94.3468 322.5268 15.33462667    12

Volg STARLINK-37816 in realtime met AllMySat

Download on the App Store